Location: Gro� Glienicke
(52.4675°N, 13.1079°E)
Time: 08:25:26
(UTC+00:00)

Gblst 52 Del rocket - Pass Details

Date: 06 July 2020
Orbit: 805 x 1366 km, 51.5° (Epoch: 04 August)

Event Time Altitude Azimuth Distance (km) Brightness Sun altitude
Rises 20:15:17 0° 283° (WNW) 3,332 8.3 -5.6°
Reaches altitude 10° 20:17:42 10° 280° (W) 2,422 7.4 -5.9°
Maximum altitude 20:23:13 62° 201° (SSW) 973 4.4 -6.4°
Drops below altitude 10° 20:29:18 10° 122° (ESE) 2,664 6.2 -7.0°
Enters shadow 20:30:21 - 120° (ESE) 3,052 6.5 -7.1°
